Overview Statistics Trail Chart Weather Telemetry Raw packets
 

This is the latest recevied weather packets stored in our database for station/object K7DC. If no packets are shown the sender has not sent any weather packets the latest 10 day(s).

<< 91 92 93 94 95 96 97 >>
Time Temp. Humidity Pressure Rain* Wind** Luminosity Snow
1787961572 37.78° C 24% 1012.6 hPa 0 mm - 91 W/m² -
1787961267 37.78° C 25% 1012.6 hPa 0 mm - 95 W/m² -
1787960967 37.78° C 25% 1012.5 hPa 0 mm - 100 W/m² -
1787960662 37.78° C 24% 1012.6 hPa 0 mm - 108 W/m² -
1787960361 37.78° C 27% 1012.6 hPa 0 mm - 120 W/m² -
1787960055 37.78° C 24% 1012.5 hPa 0 mm - 127 W/m² -
1787959750 37.22° C 24% 1012.4 hPa 0 mm - 129 W/m² -
1787959446 37.22° C 25% 1012.8 hPa 0 mm - 130 W/m² -
1787959141 37.22° C 24% 1012.7 hPa 0 mm - 129 W/m² -
1787958836 37.22° C 25% 1012.7 hPa 0 mm - 129 W/m² -
1787958531 37.22° C 25% 1012.8 hPa 0 mm - 133 W/m² -
1787958227 37.22° C 25% 1012.8 hPa 0 mm - 138 W/m² -
1787957926 37.22° C 25% 1012.7 hPa 0 mm - 138 W/m² -
1787957626 37.78° C 24% 1012.9 hPa 0 mm - 131 W/m² -
1787957321 38.33° C 23% 1012.8 hPa 0 mm - 128 W/m² -
1787957020 38.33° C 22% 1012.8 hPa 0 mm - 135 W/m² -
1787956719 38.89° C 22% 1012.9 hPa 0 mm - 157 W/m² -
1787956415 39.44° C 22% 1013 hPa 0 mm - 151 W/m² -
1787956110 40° C 21% 1013 hPa 0 mm - 176 W/m² -
1787955806 40.56° C 21% 1013.1 hPa 0 mm - 589 W/m² -
1787955501 42.22° C 21% 1013 hPa 0 mm - 176 W/m² -
1787955200 42.22° C 18% 1013.1 hPa 0 mm - 173 W/m² -
1787954896 42.22° C 18% 1013.2 hPa 0 mm - 137 W/m² -
1787954592 42.78° C 18% 1013.2 hPa 0 mm - 647 W/m² -
1787954291 42.78° C 18% 1013.3 hPa 0 mm - 673 W/m² -

* Rain latest hour (hover to see other rain measurements)
** Current wind speed in m/s (hover to see current wind gust speed)